Regional Weather Roundup
Issued by NWS

Home | Current Version | Previous Version | Graphics & Text | Print | Product List | Glossary On
Versions: 1 2 3 4 5 6 7 8 9 10 11 12 13 14 15 16 17 18 19 20 21 22 23 24 25 26 27 28 29 30 31 32 33 34 35 36 37 38 39 40 41 42 43 44 45 46 47 48 49 50
815
ASUS43 KFSD 222302
RWRSD

WEATHER ROUNDUP FOR SOUTH DAKOTA
NATIONAL WEATHER SERVICE SIOUX FALLS SD
600 PM CDT SAT APR 22 2017

NOTE: "FAIR" INDICATES FEW OR NO CLOUDS BELOW 12,000 FEET WITH NO
SIGNIFICANT WEATHER AND/OR OBSTRUCTIONS TO VISIBILITY.


SDZ001>005-009-010-012>017-230000-
NORTHWEST AND NORTH CENTRAL SOUTH DAKOTA

CITY           SKY/WX    TMP DP  RH WIND       PRES   REMARKS
BUFFALO          N/A     62  38  40 SW14      30.03S
FAITH            N/A     64  37  36 S12       30.09F
MOBRIDGE       SUNNY     71  36  27 SW15      30.05F
$$

SDZ012>016-024>037-041>051-057-063-072>074-230000-
SOUTHWEST AND SOUTH CENTRAL SOUTH DAKOTA

CITY           SKY/WX    TMP DP  RH WIND       PRES   REMARKS
RAPID CTY ARPT MOSUNNY   65  35  33 S17       30.10F
PIERRE         SUNNY     68  34  28 W12G22    30.12F
CUSTER         MOSUNNY   52  28  39 SW7G22    30.17F
ELLSWORTH AFB  PTSUNNY   66  32  28 S15       30.09F HAZE
PHILIP         SUNNY     67  36  31 SW12      30.13F
PINE RIDGE     SUNNY     65  30  27 S15       30.15F
SPEARFISH      FAIR      57  39  51 E10       30.11F
WINNER         FAIR      68  34  28 VRB6      30.17F
$$

SDZ004>011-016>023-039-040-230000-
NORTHEAST SOUTH DAKOTA

CITY           SKY/WX    TMP DP  RH WIND       PRES   REMARKS
ABERDEEN       SUNNY     70  27  20 SW18G24   30.11F
WATERTOWN      SUNNY     65  35  33 W14       30.14F
BROOKINGS      SUNNY     65  36  34 W13       30.17S
SISSETON         N/A     70  37  29 W16       30.10F
$$

SDZ017-020-022-023-036>040-048>070-230000-
SOUTHEAST SOUTH DAKOTA

CITY           SKY/WX    TMP DP  RH WIND       PRES   REMARKS
SIOUX FALLS    MOSUNNY   67  37  33 W6        30.18S
HURON          SUNNY     68  36  30 SW14      30.15F
CHAMBERLAIN    SUNNY     68  37  31 S7        30.17F
MITCHELL       SUNNY     67  36  31 NW7       30.18S
YANKTON        SUNNY     64  34  32 CALM      30.19R
$$

ABBREVIATIONS USED IN REMARKS
   TC - TEMPERATURE IN CELSIUS
  WCI - WIND CHILL INDEX
   HX - HEAT INDEX
  VSB - VISIBILITY





USA.gov is the U.S. government's official web portal to all federal, state and local government web resources and services.